Location: Aulnoy
(48.8410°N, 3.0967°E)
Time: 12:02:59
(UTC+00:00)

IGS 5A - Pass Details

Date: 09 February 2023
Orbit: 578 x 583 km, 97.5° (Epoch: 10 March)

Event Time Altitude Azimuth Distance (km) Brightness Sun altitude
Exits shadow 18:51:43 27° 146° (SE) 1,120 4.6 -19.1°
Maximum altitude 18:53:47 63° 74° (ENE) 655 3.3 -19.4°
Drops below altitude 10° 18:57:52 10° 353° (N) 1,907 6.1 -20.1°
Sets 19:00:03 0° 350° (N) 2,811 7.1 -20.5°
